Location: Saint-Palais-sur-Mer
(45.6429°N, 1.0859°W)
Time: 03:40:30
(UTC+01:00)

Tiros 1 - Pass Details

Date: 09 February 2026
Orbit: 618 x 650 km, 48.4° (Epoch: 16 March)

Event Time Altitude Azimuth Distance (km) Brightness Sun altitude
Rises 19:40:30 0° 284° (WNW) 2,891 11.9 -14.1°
Reaches altitude 10° 19:43:28 10° 264° (W) 1,985 11.1 -14.6°
Maximum altitude 19:46:25 17° 224° (SW) 1,566 9.8 -15.1°
Drops below altitude 10° 19:49:24 10° 183° (S) 1,987 9.7 -15.6°
Sets 19:52:22 0° 163° (SSE) 2,896 10.4 -16.2°
